SWA2267 PHNL-PHLI

Flight info

Callsign SWA2267
Flight time 0h 25m
Altitude 12000
Route KEOLA3 LIH
Aircraft B38M/M-SADE2E3GHIJ4J7P2RWZ/LB1D1

Departure

Time 2026-05-07 02:22
Airport Daniel K. Inouye International Airport (PHNL)

Arrival

Time 2026-05-07 02:47
Airport Lihue Airport (PHLI)
Time Latitude Longitude Altitude Speed Heading
2026-05-07 02:13 21.32941 -157.91950 22 ft 3 kts 279°
2026-05-07 02:13 21.32938 -157.91928 24 ft 3 kts 279°
2026-05-07 02:13 21.32935 -157.91908 22 ft 3 kts 261°
2026-05-07 02:14 21.32936 -157.91899 24 ft 2 kts 194°
2026-05-07 02:14 21.32947 -157.91897 25 ft 3 kts 189°
2026-05-07 02:14 21.32963 -157.91894 24 ft 1 kts 189°
2026-05-07 02:14 21.32964 -157.91894 24 ft 0 kts 189°
2026-05-07 02:16 21.32953 -157.91896 22 ft 4 kts 189°
2026-05-07 02:16 21.32914 -157.91903 22 ft 9 kts 189°
2026-05-07 02:17 21.32808 -157.91922 20 ft 21 kts 189°
2026-05-07 02:17 21.32688 -157.91888 22 ft 18 kts 147°
2026-05-07 02:17 21.32584 -157.91807 22 ft 20 kts 144°
2026-05-07 02:17 21.32462 -157.91712 18 ft 23 kts 143°
2026-05-07 02:18 21.32328 -157.91608 18 ft 25 kts 144°
2026-05-07 02:18 21.32183 -157.91495 18 ft 21 kts 144°
2026-05-07 02:18 21.32110 -157.91486 18 ft 7 kts 225°
2026-05-07 02:18 21.32059 -157.91553 18 ft 18 kts 233°
2026-05-07 02:19 21.31990 -157.91635 20 ft 26 kts 217°
2026-05-07 02:19 21.31792 -157.91857 20 ft 34 kts 233°
2026-05-07 02:19 21.31644 -157.92064 17 ft 36 kts 232°
2026-05-07 02:19 21.31542 -157.92208 15 ft 34 kts 233°
2026-05-07 02:20 21.31374 -157.92446 15 ft 26 kts 233°
2026-05-07 02:20 21.31291 -157.92571 18 ft 16 kts 258°
2026-05-07 02:20 21.31325 -157.92640 19 ft 16 kts 322°
2026-05-07 02:20 21.31435 -157.92650 20 ft 23 kts 45°
2026-05-07 02:21 21.31625 -157.92383 17 ft 85 kts 53°
2026-05-07 02:21 21.32163 -157.91627 21 ft 167 kts 52°
2026-05-07 02:21 21.32895 -157.90602 172 ft 180 kts 52°
2026-05-07 02:21 21.33713 -157.89421 594 ft 218 kts 53°
2026-05-07 02:22 21.34653 -157.88032 1283 ft 237 kts 50°
2026-05-07 02:22 21.35935 -157.86934 1803 ft 238 kts 22°
2026-05-07 02:22 21.37573 -157.86677 2209 ft 243 kts 352°
2026-05-07 02:22 21.39143 -157.87350 2491 ft 247 kts 328°
2026-05-07 02:23 21.40327 -157.88672 2933 ft 250 kts 299°
2026-05-07 02:23 21.40754 -157.90470 3370 ft 254 kts 269°
2026-05-07 02:23 21.40306 -157.92294 3837 ft 255 kts 243°
2026-05-07 02:23 21.39394 -157.93942 4500 ft 258 kts 238°
2026-05-07 02:24 21.38437 -157.95573 4984 ft 259 kts 244°
2026-05-07 02:24 21.37956 -157.97419 5443 ft 259 kts 263°
2026-05-07 02:24 21.37704 -157.99341 5946 ft 260 kts 261°
2026-05-07 02:24 21.37420 -158.01258 6435 ft 261 kts 261°
2026-05-07 02:25 21.37128 -158.03157 6887 ft 261 kts 260°
2026-05-07 02:25 21.36830 -158.05078 7325 ft 262 kts 260°
2026-05-07 02:25 21.36526 -158.07014 7786 ft 265 kts 260°
2026-05-07 02:25 21.36218 -158.08968 8256 ft 267 kts 260°
2026-05-07 02:26 21.35906 -158.10937 8750 ft 270 kts 260°
2026-05-07 02:26 21.35589 -158.12930 9247 ft 271 kts 261°
2026-05-07 02:26 21.35271 -158.14934 9720 ft 273 kts 261°
2026-05-07 02:26 21.34951 -158.16944 10173 ft 278 kts 260°
2026-05-07 02:27 21.34613 -158.19063 10590 ft 299 kts 260°
2026-05-07 02:27 21.34250 -158.21334 10979 ft 319 kts 260°
2026-05-07 02:27 21.33864 -158.23745 11401 ft 336 kts 260°
2026-05-07 02:27 21.33461 -158.26258 11834 ft 344 kts 260°
2026-05-07 02:28 21.33056 -158.28798 11967 ft 352 kts 260°
2026-05-07 02:28 21.32631 -158.31452 11963 ft 369 kts 260°
2026-05-07 02:28 21.32187 -158.34225 11946 ft 384 kts 260°
2026-05-07 02:28 21.31732 -158.37073 11952 ft 391 kts 260°
2026-05-07 02:29 21.31268 -158.39967 11957 ft 394 kts 260°
2026-05-07 02:29 21.30810 -158.42831 11966 ft 395 kts 260°
2026-05-07 02:29 21.30355 -158.45734 11970 ft 395 kts 263°
2026-05-07 02:29 21.30417 -158.48664 11945 ft 395 kts 280°
2026-05-07 02:30 21.31332 -158.51442 11966 ft 397 kts 297°
2026-05-07 02:30 21.32753 -158.53988 11972 ft 397 kts 300°
2026-05-07 02:30 21.34194 -158.56511 11964 ft 397 kts 300°
2026-05-07 02:30 21.35654 -158.59037 11971 ft 396 kts 300°
2026-05-07 02:31 21.37113 -158.61546 11972 ft 396 kts 301°
2026-05-07 02:31 21.38574 -158.64051 11968 ft 396 kts 300°
2026-05-07 02:31 21.40014 -158.66521 11972 ft 380 kts 301°
2026-05-07 02:31 21.41382 -158.68867 11975 ft 363 kts 300°
2026-05-07 02:32 21.42666 -158.71070 11980 ft 343 kts 300°
2026-05-07 02:32 21.43882 -158.73155 11990 ft 317 kts 301°
2026-05-07 02:32 21.45005 -158.75084 11991 ft 293 kts 300°
2026-05-07 02:32 21.46062 -158.76900 12004 ft 285 kts 300°
2026-05-07 02:33 21.47105 -158.78694 11997 ft 279 kts 300°
2026-05-07 02:33 21.48122 -158.80444 11991 ft 273 kts 300°
2026-05-07 02:33 21.49121 -158.82161 11982 ft 271 kts 300°
2026-05-07 02:33 21.50115 -158.83872 11935 ft 267 kts 300°
2026-05-07 02:34 21.51100 -158.85565 11563 ft 268 kts 300°
2026-05-07 02:34 21.52083 -158.87254 11341 ft 263 kts 300°
2026-05-07 02:34 21.53061 -158.88934 11318 ft 266 kts 300°
2026-05-07 02:34 21.54042 -158.90620 11299 ft 267 kts 301°
2026-05-07 02:35 21.55025 -158.92309 11298 ft 268 kts 300°
2026-05-07 02:35 21.56012 -158.94007 11233 ft 267 kts 300°
2026-05-07 02:35 21.56982 -158.95676 11110 ft 266 kts 300°
2026-05-07 02:35 21.57962 -158.97362 10982 ft 265 kts 300°
2026-05-07 02:36 21.58937 -158.99040 10845 ft 264 kts 300°
2026-05-07 02:36 21.59907 -159.00709 10667 ft 261 kts 300°
2026-05-07 02:36 21.60860 -159.02352 10500 ft 257 kts 300°
2026-05-07 02:36 21.61801 -159.03972 10322 ft 252 kts 301°
2026-05-07 02:37 21.62717 -159.05551 10153 ft 246 kts 301°
2026-05-07 02:37 21.63611 -159.07092 9975 ft 240 kts 301°
2026-05-07 02:37 21.64486 -159.08599 9762 ft 234 kts 300°
2026-05-07 02:37 21.65311 -159.10078 9563 ft 228 kts 299°
2026-05-07 02:38 21.66081 -159.11552 9359 ft 224 kts 294°
2026-05-07 02:38 21.66755 -159.13060 9183 ft 222 kts 294°
2026-05-07 02:38 21.67415 -159.14554 9097 ft 222 kts 294°
2026-05-07 02:38 21.68077 -159.16050 8917 ft 222 kts 294°
2026-05-07 02:39 21.68742 -159.17533 8634 ft 220 kts 294°
2026-05-07 02:39 21.69407 -159.19013 8325 ft 220 kts 294°
2026-05-07 02:39 21.70067 -159.20479 7990 ft 222 kts 294°
2026-05-07 02:39 21.70749 -159.21967 7651 ft 221 kts 294°
2026-05-07 02:40 21.71438 -159.23438 7311 ft 219 kts 294°
2026-05-07 02:40 21.72129 -159.24893 6973 ft 218 kts 295°
2026-05-07 02:40 21.72809 -159.26345 6648 ft 217 kts 293°
2026-05-07 02:40 21.73503 -159.27786 6303 ft 217 kts 294°
2026-05-07 02:41 21.74196 -159.29228 5924 ft 217 kts 294°
2026-05-07 02:41 21.74873 -159.30673 5516 ft 213 kts 294°
2026-05-07 02:41 21.75527 -159.32061 5052 ft 204 kts 300°
2026-05-07 02:41 21.76546 -159.33076 4559 ft 200 kts 333°
2026-05-07 02:42 21.77866 -159.33452 4197 ft 192 kts 351°
2026-05-07 02:42 21.79158 -159.33545 3903 ft 181 kts 356°
2026-05-07 02:42 21.80391 -159.33573 3626 ft 172 kts 358°
2026-05-07 02:42 21.81544 -159.33582 3361 ft 164 kts 359°
2026-05-07 02:43 21.82646 -159.33585 3115 ft 150 kts 359°
2026-05-07 02:43 21.83667 -159.33587 2936 ft 146 kts
2026-05-07 02:43 21.84683 -159.33588 2707 ft 145 kts
2026-05-07 02:43 21.85689 -159.33589 2484 ft 143 kts
2026-05-07 02:44 21.86672 -159.33588 2259 ft 141 kts
2026-05-07 02:44 21.87650 -159.33587 2066 ft 141 kts
2026-05-07 02:44 21.88636 -159.33598 1875 ft 141 kts
2026-05-07 02:44 21.89618 -159.33607 1640 ft 141 kts
2026-05-07 02:45 21.90596 -159.33595 1394 ft 141 kts
2026-05-07 02:45 21.91575 -159.33602 1107 ft 140 kts
2026-05-07 02:45 21.92552 -159.33623 938 ft 139 kts
2026-05-07 02:45 21.93521 -159.33632 688 ft 140 kts
2026-05-07 02:46 21.94478 -159.33597 483 ft 137 kts
2026-05-07 02:46 21.95436 -159.33599 316 ft 138 kts 360°
2026-05-07 02:46 21.96389 -159.33601 138 ft 135 kts
2026-05-07 02:46 21.97179 -159.33590 108 ft 64 kts 359°
2026-05-07 02:47 21.97565 -159.33591 122 ft 52 kts 359°
2026-05-07 02:47 21.97878 -159.33672 135 ft 45 kts 329°
2026-05-07 02:47 21.97940 -159.33858 115 ft 31 kts 270°
2026-05-07 02:47 21.97940 -159.34112 109 ft 36 kts 270°
2026-05-07 02:48 21.97922 -159.34371 115 ft 30 kts 239°
2026-05-07 02:48 21.97778 -159.34531 122 ft 29 kts 225°
2026-05-07 02:48 21.97761 -159.34648 125 ft 17 kts 312°
2026-05-07 02:48 21.97773 -159.34728 129 ft 8 kts 231°
2026-05-07 02:49 21.97765 -159.34769 130 ft 5 kts 269°
2026-05-07 02:49 21.97781 -159.34802 129 ft 6 kts 314°
2026-05-07 02:49 21.97796 -159.34819 126 ft 0 kts 314°